Location: Hokitika
(42.7170°S, 170.9670°E)
Time: 16:06:50
(UTC+13:00)

MetOp-B - Pass Details

Date: 24 January 2019
Orbit: 820 x 820 km, 98.7° (Epoch: 19 February)

Event Time Altitude Azimuth Distance (km) Brightness Sun altitude
Rises 23:15:41 0° 164° (SSE) 3,393 7.9 -18.8°
Reaches altitude 10° 23:18:04 10° 161° (SSE) 2,453 7.0 -19.1°
Maximum altitude 23:23:30 69° 78° (ENE) 888 4.1 -19.7°
Enters shadow 23:25:58 33° 3° (N) 1,370 4.8 -19.9°
